Location: Lucca
(43.8330°N, 10.4830°E)
Time: 05:24:03
(UTC+01:00)

ISS - Visible Passes

Search period start: 20 January 2019 00:00
Search period end: 30 January 2019 00:00
Orbit: 404 x 410 km, 51.6° (Epoch: 20 January)

Date Brightness Start Highest point End Pass type
(mag) Time Alt. Az. Time Alt. Az. Time Alt. Az.
20 Jan -0.8 19:34:51 10° SSW 19:34:52 10° SSW 19:34:52 10° SSW visible
21 Jan -1.8 18:44:23 10° S 18:46:04 16° SE 18:46:04 16° SE visible
22 Jan -2.0 19:28:08 10° SW 19:29:55 29° SW 19:29:55 29° SW visible
23 Jan -3.1 18:37:02 10° SSW 18:40:07 38° SE 18:40:56 32° ESE visible
23 Jan -0.2 20:13:34 10° W 20:13:40 11° W 20:13:40 11° W visible
24 Jan -2.1 17:46:17 10° S 17:48:52 22° SE 17:51:28 10° E visible
24 Jan -2.8 19:21:56 10° WSW 19:24:36 46° WNW 19:24:36 46° WNW visible
25 Jan -3.9 18:30:26 10° WSW 18:33:45 89° SSE 18:35:27 26° ENE visible
25 Jan -0.4 20:07:47 10° WNW 20:08:10 12° WNW 20:08:10 12° WNW visible
26 Jan -2.5 19:16:00 10° W 19:18:57 32° NNW 19:18:57 32° NNW visible
27 Jan -3.0 18:24:17 10° W 18:27:28 45° NNW 18:29:41 18° NE visible
27 Jan -0.6 20:01:58 10° WNW 20:02:24 12° NW 20:02:24 12° NW visible
28 Jan -2.1 19:10:10 10° WNW 19:12:54 23° N 19:13:05 23° N visible
29 Jan -2.3 18:18:20 10° W 18:21:16 28° NNW 18:23:44 13° NE visible
29 Jan -0.8 19:55:55 10° NW 19:56:27 13° NW 19:56:27 13° NW visible
